User: anonymous   Login
Location: *
(50.8512°N, 5.6907°E)
Time: 12:55:11
(UTC+00:00)
Language:

STARLINK-1244 - Orbit

View from above orbital plane
View from above orbital plane
View from above satellite
View from above satellite

Ground track
Ground track

The orbit data is extracted from the following two-line orbital elements,

1 45196U 20012U   20188.91667824 +.00037765 +00000-0 +25997-2 0  9994
2 45196 052.9998 347.1713 0001255 108.5740 326.7092 15.05544711001758
Epoch (UTC): 06 July 2020 22:00:01
Eccentricity: 0.0001255
inclination: 52.9998°
perigee height: 549 km
apogee height: 551 km
right ascension of ascending node: 347.1713°
argument of perigee: 108.5740°
revolutions per day: 15.05544711
mean anomaly at epoch: 326.7092°
orbit number at epoch: 175

The dashed part of the orbit path shows where the satellite is in the earth's shadow,  

DLR